STARLINK-1629, 46150

Orbit data source: Space-Track

STARLINK-1629, 46150 is a payload satellite owned by SpaceX/Seattle (US) in LEO that was launched on Tue, 18 Aug 2020 UTC via an FALCON 9 launch vehicle from the Air Force Eastern Test Range (AFETR). Payload-class satellites include a variety of spacecraft equipped with specific instruments for various scientific and technological missions. These include communications satellites like Starlink; space stations such as the ISS; scientific satellites like the Hubble; Earth observation satellites from companies like Planet Labs, Umbra, and HawkEye 360; GPS; miniature CubeSats for education and research; and military/defense satellites.

Loading next visibility...
Identifier
46150, 2020-057AK
Orbit
LEO
Country
Flag of USUS
Related business
Manufacturer
SpaceX/Seattle
Mission
Partially operational Commercial Communications
Bus & Motor
STARLINK, Unknown motor
Mass
260 kg wet, ~248 kg dry
Launch date (UTC)
2020-08-18 (5 years ago)
Launch vehicle
FALCON 9
Launch site
Air Force Eastern Test Range (AFETR)
Object type
Payload
Rocket body
Debris
Shape & HBR
Box + 1 Pan, 4.4 m
Radar Cross Section
13.562 m², Large (>1 m²)

Expand to show TLE details & history
Last TLE update: 1 day ago

TLE from 1 day ago
0 STARLINK-1629
1 46150U 20057AK  25259.55727728  .00091816  00000-0  24256-2 0  9992
2 46150  53.0368 355.6930 0005759 324.0442  36.0172 15.37676476280145
Epoch: 2025-09-16T13:22Z
TLE epoch observation values (Epoch: 2025-09-16T13:22:28.756Z)
Latitude
-0.00007°
Longitude
159.32726°
Altitude
450.69 km
Speed
7.645 km/s
True Right ascension
23h 42m 46s
True Declination
0° 00' 00"
Sunlit
Object was in full shadow at epoch
Visualization orbit readout
Latitude
Unknown
Longitude
Unknown
Altitude
Unknown
Speed
Unknown
Apparent Right ascension
Unknown
Apparent Declination
Unknown
Sunlit
N/A
Visualization observer readout
Local Sidereal Time
16:13:50
Azimuth
Unknown
Elevation
Unknown
Doppler factor
Unknown
Orbital elements
Apogee altitude
457.194 km
Perigee altitude
449.325 km
Semi-major axis
6,831.396 km
Eccentricity
0.00058
Inclination
53.0368°
RAAN
355.693°
Arg. of periapsis
324.0442°
True anomaly
36.05603°
Mean anomaly
36.0172°
Eccentric anomaly
36.03661°
Mean motion
3.84396 °/min
Orbital period
93.65 mins
BSTAR
0.0024256
Loading maneuver chart data...
Computing Atmospheric mass density...
Loading historical data...
Loading historical data...
Loading historical data...
Loading historical data...
Loading historical data...
Loading historical data...
Loading historical data...

Documentation

Showing up to 5 results
|